EST,Max TemperatureF,Mean TemperatureF,Min TemperatureF,Max Dew PointF,MeanDew PointF,Min DewpointF,Max Humidity, Mean Humidity, Min Humidity, Max Sea Level PressureIn, Mean Sea Level PressureIn, Min Sea Level PressureIn, Max VisibilityMiles, Mean VisibilityMiles, Min VisibilityMiles, Max Wind SpeedMPH, Mean Wind SpeedMPH, Max Gust SpeedMPH,PrecipitationIn, CloudCover, Events, WindDirDegrees
2012-11-1,55,50,42,34,32,26,63,53,44,29.87,29.81,29.77,10,10,10,14,6,21,0.00,5,,290
2012-11-2,61,48,35,34,28,25,76,47,27,29.99,29.89,29.85,10,10,10,12,2,18,0.00,4,,312
2012-11-3,61,52,44,36,29,26,54,44,29,30.11,30.04,30.00,10,10,10,14,7,17,0.00,1,,336
2012-11-4,55,48,42,40,38,32,85,67,52,30.06,30.02,29.98,10,10,10,9,4,,0.00,5,Rain,37
2012-11-5,55,46,36,36,30,25,87,58,33,30.11,30.07,30.03,10,10,10,9,3,,0.00,0,,26
2012-11-6,42,38,34,31,30,28,82,74,62,30.15,30.07,29.97,10,10,10,9,5,,0.00,5,,28
2012-11-7,53,42,32,34,30,27,82,65,38,29.96,29.92,29.85,10,10,10,9,4,,0.00,2,,349
2012-11-8,61,48,35,32,23,15,85,41,17,30.16,30.06,29.97,10,10,10,15,5,21,0.00,0,,314
2012-11-9,64,50,37,31,27,23,67,43,22,30.27,30.22,30.16,10,10,6,10,5,,0.00,0,,318
2012-11-10,71,53,35,34,32,28,86,51,20,30.38,30.32,30.26,10,10,10,6,1,,0.00,0,,198
2012-11-11,70,56,41,52,40,33,81,57,33,30.48,30.42,30.36,10,10,10,10,2,,0.00,0,,188
2012-11-12,66,60,53,60,57,52,96,85,70,30.40,30.28,30.16,10,10,7,14,4,24,0.01,5,,167
2012-11-13,63,51,37,60,38,26,94,72,37,30.43,30.30,30.15,10,8,2,23,9,31,0.19,5,Rain,2
2012-11-14,46,38,30,33,28,25,83,63,44,30.51,30.44,30.38,10,10,10,14,7,21,0.00,2,,47
2012-11-15,44,39,34,33,29,27,79,69,53,30.38,30.33,30.28,10,10,10,10,5,,0.00,3,Rain,21
2012-11-16,55,42,30,36,30,28,89,64,37,30.43,30.33,30.28,10,10,10,7,4,,0.00,0,,25
2012-11-17,55,46,36,29,25,19,73,48,25,30.52,30.47,30.42,10,10,10,16,9,22,0.00,0,,35
2012-11-18,54,48,42,39,36,26,71,63,53,30.49,30.44,30.38,10,10,10,16,10,24,0.00,6,,31
2012-11-19,57,51,44,43,40,37,82,70,57,30.38,30.30,30.21,10,10,10,13,9,22,0.00,5,,31
2012-11-20,57,49,39,41,39,38,93,75,53,30.21,30.14,30.07,10,10,9,5,3,,0.00,0,,26
2012-11-21,61,49,37,41,35,29,93,65,32,30.21,30.16,30.11,10,10,9,9,4,,0.00,0,,28
2012-11-22,61,49,37,30,28,24,70,50,24,30.27,30.22,30.18,10,10,10,9,4,,0.00,0,,13
2012-11-23,64,48,32,41,32,26,82,53,33,30.16,30.03,29.89,10,10,10,16,2,24,0.00,1,,266
2012-11-24,46,39,30,28,19,14,54,42,27,30.13,30.03,29.94,10,10,10,17,10,23,0.00,0,,320
2012-11-25,50,36,21,20,18,15,75,47,26,30.17,30.10,30.02,10,10,10,9,3,,0.00,0,,229
2012-11-26,63,48,32,27,22,18,64,40,20,30.21,30.15,30.08,10,10,10,5,2,,0.00,0,,192
2012-11-27,51,47,42,45,39,25,93,78,38,30.26,30.17,30.12,10,9,7,9,2,,0.03,8,Rain,44
2012-11-28,53,42,30,39,30,19,100,76,26,30.40,30.32,30.25,10,6,0,9,2,,0.00,1,Fog,349
2012-11-29,53,40,28,33,25,20,73,58,33,30.49,30.42,30.37,10,10,10,8,1,,0.00,0,,271
2012-11-30,59,44,30,38,32,29,92,62,33,30.41,30.35,30.28,10,9,4,8,1,,0.00,0,,228